User: anonymous   Login
Location: Unspecified
(0.0000°N, 0.0000°E)
Time: 10:32:49
(UTC+00:00)
Language:

USA 72 - Orbit

View from above orbital plane
View from above orbital plane
View from above satellite
View from above satellite

Ground track
Ground track

The orbit data is extracted from the following two-line orbital elements,

1 21775U 91076A   18105.09650031 0.00000000  00000-0  00000-0 0    07
2 21775  63.3876   0.0162 3374347 269.5299  52.4730  5.53395612    09
Epoch (UTC): 15 April 2018 02:18:57
Eccentricity: 0.3374347
inclination: 63.3876°
perigee height: 2567 km
apogee height: 11679 km
right ascension of ascending node: 0.0162°
argument of perigee: 269.5299°
revolutions per day: 5.53395612
mean anomaly at epoch: 52.4730°
orbit number at epoch: 0

The dashed part of the orbit path shows where the satellite is in the earth's shadow,  

DLR